[[{"header":{"parameterUnit":"m.s-1","parameterCategory":1,"la1":30.2991,"la2":30.254,"lo1":-89.0895,"lo2":-89.0444,"dy":0.0017,"dx":0.0017,"nx":28,"ny":28,"refTime":"2025-06-09T03:00:00:Z","depth":0,"parameterNumber":2,"parameterNumberName":"U-component_of_WINDS"},"data":[0,0,0,0,0,0,0,0,0,0,0,0,0,0,0,0,0,0,0,0,0,0,0,0,0,0,0,0,0,0,0,0,0,0,0,0,0,0,0,0,0,0,0,0,0,0,0,0,0,0,0,0,0,0,0,0,0,0,0.4147,0.4149,0,0.4263,0.4265,0.4266,0.432,0.432,0.432,0.432,0.4437,0.444,0.4443,0,0,0,0,0,0,0,0,0,0,0,0,0,0.397,0.3973,0.4147,0.4149,0.415,0.4263,0.4265,0.4266,0.432,0.432,0.432,0.432,0.4436,0.4439,0.4443,0,0,0,0,0,0,0,0,0,0,0,0,0,0.4062,0.3974,0.4147,0.4191,0.4196,0.4263,0.4265,0.4267,0.4321,0.432,0.432,0.432,0.4434,0.4439,0.4444,0.4475,0,0,0.4458,0.446,0,0,0,0,0,0,0,0,0.4057,0.4069,0.4183,0.4188,0.4194,0.4277,0.4245,0.4336,0.4321,0.4273,0.432,0.432,0.4384,0.4393,0.4414,0.448,0.4485,0.4459,0.4462,0.4464,0.4465,0,0,0,0,0,0,0,0.405,0.4064,0.4193,0.4185,0.4191,0.4204,0.4217,0.4262,0.4327,0.4277,0.4282,0.4295,0.4387,0.441,0.4418,0.4487,0.4459,0.4463,0.4466,0.4468,0.4584,0.4585,0,0,0,0,0,0,0.4037,0.4058,0.4189,0.4197,0.4124,0.4207,0.4222,0.4251,0.4327,0.4339,0.4295,0.4297,0.4402,0.4412,0.4422,0.4464,0.4464,0.4468,0.4471,0.4584,0.4584,0.4585,0,0,0,0,0,0,0.4033,0.4048,0.4185,0.4129,0.4147,0.421,0.4242,0.4253,0.4276,0.434,0.4352,0.4307,0.4402,0.4415,0.4462,0.4469,0.447,0.4474,0.4584,0.4584,0.4585,0.4547,0,0,0,0,0,0,0.4028,0.4047,0.406,0.4129,0.415,0.4223,0.4243,0.4255,0.4285,0.4289,0.4355,0.4365,0.4403,0.4454,0.4466,0.4475,0.4478,0.4583,0.4584,0.4584,0.4548,0.4546,0.4545,0,0,0,0,0,0.4021,0.4044,0.406,0.4076,0.4168,0.4223,0.4236,0.4279,0.4285,0.4298,0.4339,0.4363,0.4466,0.4458,0.4473,0.4483,0.4583,0.4584,0.4584,0.4549,0.4547,0.4545,0,0,0,0,0,0,0.3974,0.4054,0.4073,0.4119,0.4164,0.4233,0.4251,0.4275,0.4319,0.4321,0.4372,0.4386,0.4428,0.446,0.4451,0.4517,0.4527,0.453,0.4495,0.4493,0.4492,0.4483,0.4482,0,0,0,0,0,0.3969,0.4009,0.4076,0.411,0.4132,0.4187,0.4213,0.4243,0.4291,0.431,0.4355,0.44,0.4443,0.447,0.4512,0.4553,0.4568,0.4567,0.4565,0.4563,0.4566,0.459,0.459,0.4587,0.4587,0.4587,0,0,0.3959,0.4008,0.4029,0.4102,0.414,0.4179,0.4203,0.4243,0.4272,0.4316,0.4363,0.4397,0.4451,0.4495,0.4516,0.4522,0.457,0.4564,0.4562,0.4566,0.459,0.459,0.4591,0.4587,0.4587,0.4587,0,0,0.3961,0.4002,0.4035,0.4073,0.4131,0.4168,0.4175,0.424,0.4265,0.4313,0.4347,0.4381,0.4453,0.4491,0.4519,0.4534,0.4557,0.4546,0.4537,0.456,0.456,0.4561,0.4566,0.4568,0.4548,0.4548,0.4548,0,0.3941,0.4002,0.4048,0.4087,0.4117,0.416,0.4193,0.4227,0.4296,0.4315,0.4322,0.4413,0.4452,0.4505,0.4509,0.453,0.454,0.4539,0.4556,0.4557,0.4559,0.4564,0.4566,0.4546,0.4546,0.4547,0.4547,0,0.3975,0.4016,0.4035,0.4102,0.4134,0.417,0.4221,0.4248,0.4274,0.431,0.4357,0.4406,0.4459,0.4474,0.45,0.453,0.4532,0.4547,0.4558,0.4556,0.4563,0.4565,0.4544,0.4544,0.4545,0.4545,0,0,0.3951,0.4042,0.4048,0.4079,0.4146,0.4178,0.4215,0.4268,0.429,0.4336,0.4368,0.4427,0.4441,0.4473,0.4503,0.4523,0.4532,0.4535,0.4537,0.4533,0.4568,0.4558,0.4559,0.4547,0.4548,0.4549,0.4564,0,0.3962,0.4032,0.4074,0.4126,0.4165,0.4205,0.4237,0.4281,0.4315,0.4352,0.4389,0.4431,0.4445,0.4465,0.4486,0.4526,0.454,0.4526,0.4578,0.4579,0.4564,0.4563,0.4552,0.4564,0.4567,0.4567,0.4568,0,0.3985,0.4031,0.4087,0.4149,0.4167,0.4195,0.4247,0.4282,0.4332,0.4355,0.4391,0.4421,0.4461,0.4467,0.4523,0.4512,0.4536,0.4558,0.456,0.4567,0.4574,0.457,0.4569,0.4571,0.4572,0.4572,0.4571,0,0.3963,0.4038,0.4081,0.4106,0.418,0.4199,0.423,0.428,0.4309,0.4353,0.4373,0.4421,0.4447,0.4483,0.4525,0.4526,0.4576,0.4587,0.4596,0.4595,0.4606,0.4605,0.4609,0.462,0.462,0.462,0.462,0,0.3972,0.4004,0.4072,0.4099,0.4136,0.4184,0.4219,0.4254,0.4298,0.4331,0.4368,0.4399,0.4452,0.4489,0.4522,0.4563,0.4574,0.4594,0.4602,0.4591,0.4588,0.4608,0.4608,0.462,0.462,0.462,0.462,0,0.3953,0.4,0.405,0.4116,0.4133,0.4158,0.4214,0.424,0.4276,0.4318,0.433,0.4386,0.4431,0.4476,0.4537,0.4559,0.4599,0.461,0.4582,0.4587,0.4595,0.4593,0.4612,0.4617,0.4623,0.4623,0.4623,0,0.3956,0.3983,0.4051,0.4077,0.4108,0.4148,0.4178,0.4225,0.4254,0.4313,0.4333,0.438,0.4422,0.4491,0.4537,0.4583,0.4596,0.4599,0.4603,0.4591,0.4597,0.4595,0.4598,0.4598,0.4597,0.4597,0.4597,0,0.3957,0.3978,0.402,0.407,0.4105,0.4146,0.4189,0.4207,0.4263,0.4293,0.434,0.4372,0.4434,0.4481,0.4533,0.4564,0.459,0.4595,0.46,0.4589,0.4572,0.4582,0.4578,0.4595,0.4595,0.4595,0.4595,0.4595,0.395,0.3975,0.4027,0.4072,0.4109,0.4148,0.4177,0.4216,0.4256,0.4311,0.4336,0.4383,0.4432,0.4504,0.4535,0.4572,0.4579,0.4586,0.4588,0.4589,0.4586,0.4565,0.4581,0.4582,0.4582,0.4582,0.4582,0,0.3952,0.3988,0.4029,0.4088,0.4123,0.4144,0.4192,0.422,0.4262,0.4305,0.4345,0.4399,0.4444,0.4493,0.4541,0.4561,0.4574,0.4572,0.4572,0.4578,0.4577,0.4568,0.4561,0.4561,0.4561,0.4561,0.4561,0.4561,0.3958,0.4002,0.4029,0.4091,0.4127,0.4174,0.4199,0.4235,0.427,0.4329,0.4367,0.4399,0.4444,0.4496,0.4538,0.4552,0.4568,0.4563,0.4579,0.4577,0.4579,0.458,0.4572,0.4566,0.4566,0.4578,0.4578,0.4578]},{"header":{"parameterUnit":"m.s-1","parameterCategory":1,"la1":30.2991,"la2":30.254,"lo1":-89.0895,"lo2":-89.0444,"dy":0.0017,"dx":0.0017,"nx":28,"ny":28,"refTime":"2025-06-09T03:00:00:Z","depth":0,"parameterNumber":3,"parameterNumberName":"V-component_of_WINDS"},"data":[0,0,0,0,0,0,0,0,0,0,0,0,0,0,0,0,0,0,0,0,0,0,0,0,0,0,0,0,0,0,0,0,0,0,0,0,0,0,0,0,0,0,0,0,0,0,0,0,0,0,0,0,0,0,0,0,0,0,3.0534,3.0533,0,3.0469,3.0468,3.0467,3.0382,3.0381,3.0379,3.0378,3.0311,3.0311,3.031,0,0,0,0,0,0,0,0,0,0,0,0,0,3.0585,3.0584,3.0534,3.0533,3.0532,3.0469,3.0468,3.0467,3.0382,3.0381,3.0379,3.0377,3.0311,3.0311,3.031,0,0,0,0,0,0,0,0,0,0,0,0,0,3.0546,3.0584,3.0534,3.0482,3.0477,3.0469,3.0468,3.0467,3.0383,3.0381,3.0378,3.0376,3.0312,3.0311,3.031,3.0347,0,0,3.0308,3.0308,0,0,0,0,0,0,0,0,3.0548,3.0544,3.0491,3.0486,3.048,3.0431,3.0461,3.0427,3.0383,3.0419,3.0378,3.0375,3.0353,3.0349,3.0341,3.0344,3.0341,3.0308,3.0307,3.0307,3.0307,0,0,0,0,0,0,0,3.0551,3.0546,3.0508,3.049,3.0484,3.0462,3.0454,3.0454,3.0398,3.0415,3.0409,3.0402,3.0349,3.0342,3.0339,3.034,3.0308,3.0307,3.0307,3.0306,3.0369,3.0371,0,0,0,0,0,0,3.0561,3.0549,3.051,3.0506,3.051,3.0463,3.0454,3.0449,3.0398,3.0388,3.0404,3.0399,3.0344,3.034,3.0336,3.0375,3.0307,3.0306,3.0306,3.0367,3.0369,3.0371,0,0,0,0,0,0,3.0563,3.0559,3.0513,3.0526,3.0518,3.0464,3.0459,3.0449,3.0441,3.039,3.0379,3.0407,3.0342,3.0337,3.0345,3.0371,3.0306,3.0305,3.0364,3.0367,3.037,3.0454,0,0,0,0,0,0,3.0564,3.056,3.0573,3.0527,3.0518,3.0523,3.0461,3.0449,3.044,3.0432,3.0389,3.038,3.034,3.0346,3.0344,3.0369,3.0305,3.0361,3.0366,3.0369,3.0448,3.0459,3.0469,0,0,0,0,0,3.0567,3.06,3.0575,3.057,3.0534,3.0525,3.052,3.0473,3.0443,3.0456,3.0422,3.0381,3.0369,3.0348,3.0344,3.037,3.036,3.0364,3.0369,3.0444,3.0457,3.0469,0,0,0,0,0,0,3.0652,3.0593,3.0564,3.0584,3.056,3.0511,3.0526,3.0489,3.0474,3.0467,3.041,3.0401,3.0415,3.0393,3.0371,3.0402,3.0358,3.0362,3.0416,3.0428,3.0438,3.0443,3.0304,0,0,0,0,0,3.0673,3.067,3.0619,3.0641,3.063,3.0581,3.0575,3.0541,3.0514,3.0503,3.0471,3.0446,3.0436,3.0431,3.0419,3.0445,3.0433,3.0461,3.0471,3.0479,3.0484,3.0494,3.0505,3.0387,3.0387,3.0387,0,0,3.0716,3.0684,3.0686,3.0657,3.0635,3.0633,3.0573,3.0574,3.0571,3.0503,3.0508,3.0484,3.0452,3.0468,3.0474,3.045,3.0514,3.0485,3.0493,3.0492,3.05,3.0511,3.0521,3.039,3.0389,3.0389,0,0,3.0794,3.077,3.0785,3.0763,3.073,3.0696,3.07,3.0656,3.0637,3.064,3.0589,3.0585,3.057,3.055,3.0537,3.0606,3.0567,3.0604,3.0657,3.0668,3.0677,3.0685,3.0708,3.0718,3.0608,3.0609,3.0609,0,3.0852,3.0848,3.0797,3.0801,3.0789,3.0727,3.0742,3.0723,3.0688,3.0681,3.0656,3.0634,3.0609,3.0619,3.0635,3.0628,3.0629,3.0608,3.068,3.0687,3.0694,3.0715,3.0725,3.0613,3.0613,3.0612,3.0612,0,3.092,3.0918,3.0934,3.0901,3.0891,3.09,3.0851,3.0847,3.0813,3.0782,3.0786,3.0754,3.0733,3.0733,3.0701,3.0738,3.0724,3.069,3.0645,3.0711,3.073,3.0738,3.062,3.0618,3.0617,3.0616,0,0,3.105,3.0988,3.0995,3.0979,3.0937,3.0934,3.094,3.092,3.0917,3.0895,3.0897,3.0885,3.0853,3.0839,3.0803,3.0813,3.0868,3.0777,3.0775,3.0794,3.0905,3.0931,3.0941,3.0842,3.0843,3.0844,3.0907,0,3.112,3.1126,3.108,3.1099,3.1095,3.1036,3.1041,3.1015,3.0986,3.0979,3.0946,3.0938,3.0896,3.0887,3.0894,3.086,3.0889,3.0855,3.0843,3.0843,3.0852,3.0952,3.0979,3.104,3.0915,3.0916,3.0917,0,3.1202,3.1183,3.1202,3.1157,3.1154,3.116,3.1137,3.113,3.11,3.1078,3.1062,3.1021,3.1023,3.098,3.098,3.0958,3.095,3.0933,3.0934,3.0931,3.0884,3.095,3.1058,3.1068,3.0928,3.0928,3.0927,0,3.1294,3.1273,3.1281,3.1269,3.1218,3.1223,3.1202,3.1169,3.116,3.114,3.1133,3.1114,3.1103,3.1089,3.1044,3.1017,3.1049,3.1003,3.103,3.1032,3.104,3.104,3.1148,3.1036,3.1036,3.1036,3.1036,0,3.1376,3.1389,3.1321,3.1326,3.1339,3.1286,3.13,3.1273,3.1244,3.1242,3.119,3.1189,3.113,3.1122,3.1086,3.1092,3.1088,3.1069,3.106,3.1074,3.1076,3.1068,3.1062,3.1038,3.1038,3.1038,3.1037,0,3.148,3.1436,3.144,3.1392,3.138,3.1391,3.1349,3.1351,3.1318,3.1316,3.1313,3.1261,3.1249,3.1202,3.1179,3.1155,3.1172,3.1154,3.1182,3.1176,3.1206,3.1203,3.1312,3.1323,3.1206,3.1207,3.1208,0,3.1535,3.1544,3.1496,3.1491,3.1472,3.1465,3.1454,3.1402,3.1394,3.1359,3.1365,3.1348,3.1333,3.1316,3.1276,3.1258,3.1238,3.1277,3.1235,3.1248,3.1237,3.1237,3.1237,3.1286,3.1288,3.1289,3.129,0,3.1637,3.1615,3.1602,3.1582,3.1571,3.1552,3.153,3.1529,3.1471,3.1464,3.1451,3.1438,3.1414,3.1398,3.1373,3.135,3.131,3.1304,3.1309,3.1323,3.1339,3.133,3.1207,3.1301,3.13,3.1299,3.1299,3.1298,3.1718,3.1722,3.1689,3.1676,3.1654,3.1635,3.1634,3.1601,3.1589,3.1566,3.1535,3.1526,3.1493,3.1455,3.1436,3.1427,3.1405,3.1413,3.1415,3.1417,3.1424,3.1341,3.1422,3.1422,3.1421,3.1421,3.1421,0,3.1816,3.1792,3.1781,3.1752,3.1742,3.1705,3.1678,3.1672,3.1665,3.1638,3.1623,3.1607,3.1591,3.155,3.1529,3.153,3.1511,3.1527,3.1526,3.1521,3.1445,3.1442,3.1542,3.1542,3.1542,3.1542,3.1542,3.1542,3.1867,3.1872,3.1845,3.1838,3.1813,3.1804,3.1792,3.1773,3.1751,3.1736,3.1723,3.1696,3.1662,3.1639,3.1622,3.161,3.1605,3.1626,3.1608,3.1538,3.1527,3.1515,3.1512,3.1626,3.1626,3.1685,3.1685,3.1686]}]]